FGKCX LFPB-LIMJ

Flight info

Callsign FGKCX
Flight time 1h 38m
Altitude 45000
Route OKASI6J/09 OKASI DCT OKEKO DCT MOU DCT MADIV DCT MOKIP DCT TUFTA DCT GEVEA DCT MOBLO DCT LURAG DCT OBUXA DCT TOP M730 TESTO
Aircraft C750/M-SBDE3FGHRWXY/S

Departure

Time 2026-04-21 19:39
Airport Paris-Le Bourget International Airport (LFPB)

Arrival

Time 2026-04-21 21:17
Airport Genoa Cristoforo Colombo Airport (LIMJ)
Time Latitude Longitude Altitude Speed Heading
2026-04-21 19:24 48.95848 2.44326 155 ft 0 kts 181°
2026-04-21 19:31 48.95846 2.44324 155 ft 1 kts 202°
2026-04-21 19:31 48.95847 2.44315 155 ft 2 kts 294°
2026-04-21 19:31 48.95862 2.44274 155 ft 8 kts 298°
2026-04-21 19:32 48.95865 2.44182 153 ft 10 kts 240°
2026-04-21 19:32 48.95803 2.44133 153 ft 11 kts 205°
2026-04-21 19:32 48.95722 2.44075 153 ft 14 kts 205°
2026-04-21 19:32 48.95716 2.43928 151 ft 17 kts 291°
2026-04-21 19:33 48.95748 2.43821 152 ft 16 kts 295°
2026-04-21 19:33 48.95806 2.43633 153 ft 14 kts 295°
2026-04-21 19:33 48.95832 2.43548 160 ft 6 kts 294°
2026-04-21 19:33 48.95851 2.43483 162 ft 8 kts 294°
2026-04-21 19:34 48.95888 2.43362 160 ft 17 kts 295°
2026-04-21 19:34 48.95948 2.43167 156 ft 24 kts 296°
2026-04-21 19:34 48.96056 2.42936 150 ft 27 kts 308°
2026-04-21 19:34 48.96166 2.42729 153 ft 22 kts 309°
2026-04-21 19:35 48.96236 2.42598 158 ft 12 kts 307°
2026-04-21 19:35 48.96267 2.42371 156 ft 12 kts 266°
2026-04-21 19:35 48.96262 2.42245 156 ft 11 kts 266°
2026-04-21 19:36 48.96261 2.42232 156 ft 0 kts 266°
2026-04-21 19:37 48.96260 2.42212 156 ft 5 kts 267°
2026-04-21 19:38 48.96262 2.42138 157 ft 8 kts 281°
2026-04-21 19:38 48.96300 2.42065 155 ft 11 kts 332°
2026-04-21 19:38 48.96352 2.42061 153 ft 12 kts 25°
2026-04-21 19:38 48.96376 2.42150 153 ft 0 kts 85°
2026-04-21 19:39 48.96376 2.42152 153 ft 2 kts 86°
2026-04-21 19:39 48.96402 2.42618 158 ft 99 kts 85°
2026-04-21 19:39 48.96481 2.43971 354 ft 139 kts 81°
2026-04-21 19:39 48.96545 2.45468 1009 ft 143 kts 84°
2026-04-21 19:40 48.96615 2.46983 1847 ft 143 kts 85°
2026-04-21 19:40 48.96692 2.48464 2733 ft 143 kts 85°
2026-04-21 19:40 48.96757 2.50117 3268 ft 168 kts 86°
2026-04-21 19:40 48.96874 2.52015 3813 ft 193 kts 85°
2026-04-21 19:41 48.96778 2.54201 4301 ft 220 kts 94°
2026-04-21 19:41 48.96603 2.56620 5052 ft 234 kts 95°
2026-04-21 19:41 48.96432 2.59089 6120 ft 236 kts 95°
2026-04-21 19:41 48.96263 2.61607 7041 ft 244 kts 95°
2026-04-21 19:42 48.96085 2.64236 7918 ft 255 kts 95°
2026-04-21 19:42 48.95899 2.66966 8873 ft 264 kts 94°
2026-04-21 19:42 48.95704 2.69799 9755 ft 275 kts 94°
2026-04-21 19:42 48.95502 2.72740 10497 ft 286 kts 94°
2026-04-21 19:43 48.95286 2.75891 10755 ft 313 kts 94°
2026-04-21 19:43 48.95020 2.79323 10851 ft 340 kts 96°
2026-04-21 19:43 48.94429 2.82874 11271 ft 354 kts 113°
2026-04-21 19:43 48.92892 2.85803 12067 ft 359 kts 137°
2026-04-21 19:44 48.90723 2.87728 12737 ft 368 kts 159°
2026-04-21 19:44 48.88187 2.88301 13441 ft 373 kts 181°
2026-04-21 19:44 48.85665 2.87386 14119 ft 375 kts 203°
2026-04-21 19:44 48.83296 2.85697 14786 ft 377 kts 208°
2026-04-21 19:45 48.80946 2.83898 15406 ft 381 kts 208°
2026-04-21 19:45 48.78534 2.82148 16066 ft 385 kts 207°
2026-04-21 19:45 48.76088 2.80450 16730 ft 389 kts 208°
2026-04-21 19:45 48.73532 2.79003 17263 ft 401 kts 196°
2026-04-21 19:46 48.70760 2.78683 17962 ft 409 kts 181°
2026-04-21 19:46 48.67916 2.79342 18579 ft 417 kts 172°
2026-04-21 19:46 48.65013 2.80228 19158 ft 423 kts 172°
2026-04-21 19:46 48.62143 2.81088 19734 ft 429 kts 172°
2026-04-21 19:47 48.59194 2.81934 20325 ft 434 kts 173°
2026-04-21 19:47 48.56197 2.82796 20916 ft 441 kts 173°
2026-04-21 19:47 48.53170 2.83688 21512 ft 446 kts 173°
2026-04-21 19:47 48.50100 2.84594 22111 ft 452 kts 173°
2026-04-21 19:48 48.46998 2.85493 22711 ft 457 kts 173°
2026-04-21 19:48 48.43866 2.86397 23297 ft 462 kts 173°
2026-04-21 19:48 48.40691 2.87321 23857 ft 467 kts 173°
2026-04-21 19:48 48.37488 2.88254 24400 ft 470 kts 173°
2026-04-21 19:49 48.34275 2.89186 24963 ft 472 kts 174°
2026-04-21 19:49 48.32088 2.89818 25323 ft 474 kts 174°
2026-04-21 19:49 48.27781 2.91061 26036 ft 478 kts 174°
2026-04-21 19:49 48.24499 2.92009 26577 ft 481 kts 174°
2026-04-21 19:50 48.22270 2.92652 26941 ft 484 kts 174°
2026-04-21 19:50 48.17872 2.93918 27650 ft 488 kts 174°
2026-04-21 19:50 48.14520 2.94881 28191 ft 491 kts 174°
2026-04-21 19:50 48.11153 2.95847 28743 ft 495 kts 174°
2026-04-21 19:51 48.07759 2.96821 29266 ft 498 kts 174°
2026-04-21 19:51 48.04339 2.97800 29789 ft 502 kts 174°
2026-04-21 19:51 48.00898 2.98784 30290 ft 505 kts 174°
2026-04-21 19:51 47.97437 2.99772 30753 ft 508 kts 174°
2026-04-21 19:52 47.95135 3.00429 31062 ft 509 kts 174°
2026-04-21 19:52 47.91659 3.01422 31730 ft 506 kts 175°
2026-04-21 19:52 47.88211 3.02406 32450 ft 503 kts 175°
2026-04-21 19:52 47.84779 3.03379 33128 ft 501 kts 175°
2026-04-21 19:53 47.81358 3.04329 33803 ft 498 kts 176°
2026-04-21 19:53 47.77991 3.05670 34347 ft 506 kts 166°
2026-04-21 19:53 47.74753 3.07765 34948 ft 509 kts 157°
2026-04-21 19:53 47.71625 3.10191 35582 ft 505 kts 157°
2026-04-21 19:54 47.68516 3.12592 36202 ft 503 kts 156°
2026-04-21 19:54 47.65462 3.15118 36795 ft 503 kts 151°
2026-04-21 19:54 47.62649 3.18214 37394 ft 505 kts 141°
2026-04-21 19:54 47.60171 3.21891 38066 ft 503 kts 133°
2026-04-21 19:55 47.57923 3.25844 38788 ft 500 kts 130°
2026-04-21 19:55 47.55769 3.29858 39295 ft 497 kts 130°
2026-04-21 19:55 47.53511 3.33731 39752 ft 496 kts 134°
2026-04-21 19:55 47.51149 3.37433 40222 ft 494 kts 134°
2026-04-21 19:56 47.48350 3.42016 40800 ft 493 kts 131°
2026-04-21 19:56 47.46607 3.45044 41178 ft 493 kts 131°
2026-04-21 19:56 47.44364 3.48875 41665 ft 491 kts 132°
2026-04-21 19:56 47.42070 3.52614 42145 ft 490 kts 133°
2026-04-21 19:57 47.39779 3.56340 42625 ft 489 kts 133°
2026-04-21 19:57 47.37532 3.60099 43081 ft 489 kts 132°
2026-04-21 19:57 47.35290 3.63866 43545 ft 488 kts 132°
2026-04-21 19:57 47.33061 3.67539 44011 ft 487 kts 133°
2026-04-21 19:58 47.30797 3.71239 44464 ft 486 kts 133°
2026-04-21 19:58 47.28543 3.74956 44896 ft 485 kts 132°
2026-04-21 19:58 47.26299 3.78673 45090 ft 489 kts 132°
2026-04-21 19:59 47.21683 3.86245 45088 ft 505 kts 133°
2026-04-21 19:59 47.16922 3.94047 45102 ft 519 kts 132°
2026-04-21 20:00 47.12052 4.02001 45090 ft 525 kts 133°
2026-04-21 20:00 47.07155 4.09973 45085 ft 525 kts 133°
2026-04-21 20:01 47.02251 4.17938 45082 ft 526 kts 133°
2026-04-21 20:01 46.97341 4.25883 45078 ft 526 kts 133°
2026-04-21 20:02 46.92424 4.33821 45079 ft 526 kts 133°
2026-04-21 20:02 46.87506 4.41733 45072 ft 526 kts 133°
2026-04-21 20:03 46.82579 4.49640 45074 ft 526 kts 133°
2026-04-21 20:03 46.77640 4.57541 45067 ft 526 kts 133°
2026-04-21 20:04 46.72700 4.65420 45055 ft 526 kts 133°
2026-04-21 20:04 46.67756 4.73284 45047 ft 527 kts 133°
2026-04-21 20:05 46.62797 4.81147 45036 ft 527 kts 133°
2026-04-21 20:05 46.57868 4.88943 45034 ft 527 kts 133°
2026-04-21 20:06 46.52898 4.96778 45026 ft 527 kts 133°
2026-04-21 20:06 46.47936 5.04620 45023 ft 528 kts 131°
2026-04-21 20:07 46.43993 5.13574 45010 ft 530 kts 114°
2026-04-21 20:07 46.41833 5.23774 45027 ft 530 kts 101°
2026-04-21 20:08 46.40420 5.34259 45021 ft 531 kts 102°
2026-04-21 20:08 46.38353 5.44540 45026 ft 531 kts 107°
2026-04-21 20:09 46.36445 5.54876 45028 ft 531 kts 102°
2026-04-21 20:09 46.34583 5.64981 45029 ft 532 kts 105°
2026-04-21 20:10 46.33235 5.71775 45027 ft 532 kts 104°
2026-04-21 20:10 46.31671 5.80456 45029 ft 532 kts 104°
2026-04-21 20:11 46.29678 5.90755 45030 ft 531 kts 105°
2026-04-21 20:11 46.27728 6.01077 45031 ft 532 kts 104°
2026-04-21 20:12 46.25308 6.11188 45010 ft 533 kts 116°
2026-04-21 20:12 46.21097 6.19963 45020 ft 533 kts 134°
2026-04-21 20:13 46.15574 6.26961 45035 ft 532 kts 143°
2026-04-21 20:13 46.09790 6.33750 45009 ft 533 kts 138°
2026-04-21 20:14 46.04570 6.41212 45019 ft 532 kts 136°
2026-04-21 20:14 45.99058 6.48319 45006 ft 531 kts 140°
2026-04-21 20:15 45.93647 6.55574 44992 ft 532 kts 137°
2026-04-21 20:15 45.88202 6.62750 44990 ft 531 kts 139°
2026-04-21 20:16 45.82751 6.69910 44993 ft 531 kts 138°
2026-04-21 20:16 45.77309 6.77080 44993 ft 532 kts 139°
2026-04-21 20:17 45.71830 6.84172 44989 ft 531 kts 139°
2026-04-21 20:17 45.66376 6.91307 44977 ft 531 kts 139°
2026-04-21 20:18 45.61749 6.97274 44970 ft 531 kts 139°
2026-04-21 20:18 45.55426 7.05478 44968 ft 532 kts 139°
2026-04-21 20:19 45.50587 7.13444 44963 ft 534 kts 124°
2026-04-21 20:19 45.46824 7.22596 44978 ft 537 kts 119°
2026-04-21 20:20 45.42880 7.31540 44449 ft 526 kts 124°
2026-04-21 20:20 45.40753 7.35726 43736 ft 517 kts 130°
2026-04-21 20:20 45.38297 7.39391 43062 ft 507 kts 139°
2026-04-21 20:20 45.35599 7.42436 42420 ft 497 kts 146°
2026-04-21 20:21 45.32773 7.45162 41992 ft 484 kts 149°
2026-04-21 20:21 45.29989 7.47744 41603 ft 473 kts 148°
2026-04-21 20:21 45.27345 7.50463 41207 ft 465 kts 145°
2026-04-21 20:21 45.24820 7.53241 40820 ft 455 kts 145°
2026-04-21 20:22 45.22300 7.55870 40432 ft 445 kts 148°
2026-04-21 20:22 45.17322 7.60841 39677 ft 430 kts 147°
2026-04-21 20:22 45.14935 7.63338 39318 ft 424 kts 147°
2026-04-21 20:23 45.12565 7.65795 38960 ft 421 kts 148°
2026-04-21 20:23 45.10177 7.68211 38524 ft 422 kts 149°
2026-04-21 20:23 45.07778 7.70639 38022 ft 426 kts 148°
2026-04-21 20:23 45.05368 7.73109 37540 ft 430 kts 148°
2026-04-21 20:24 45.02931 7.75608 37021 ft 436 kts 148°
2026-04-21 20:24 45.00461 7.78120 36512 ft 439 kts 148°
2026-04-21 20:24 44.97967 7.80650 36019 ft 442 kts 148°
2026-04-21 20:24 44.95465 7.83196 35531 ft 445 kts 148°
2026-04-21 20:25 44.93079 7.86015 35007 ft 451 kts 137°
2026-04-21 20:25 44.91025 7.89388 34438 ft 457 kts 126°
2026-04-21 20:25 44.89353 7.93216 33854 ft 460 kts 117°
2026-04-21 20:25 44.87940 7.97261 33224 ft 459 kts 114°
2026-04-21 20:26 44.86546 8.01310 32609 ft 459 kts 116°
2026-04-21 20:26 44.84956 8.05215 31999 ft 459 kts 121°
2026-04-21 20:26 44.83259 8.09023 31410 ft 458 kts 121°
2026-04-21 20:26 44.81656 8.12896 30814 ft 459 kts 117°
2026-04-21 20:27 44.80140 8.16847 30242 ft 459 kts 117°
2026-04-21 20:27 44.78582 8.20766 29602 ft 459 kts 119°
2026-04-21 20:27 44.76976 8.24585 28957 ft 459 kts 120°
2026-04-21 20:27 44.75360 8.28458 28310 ft 460 kts 119°
2026-04-21 20:28 44.73785 8.32371 27681 ft 460 kts 118°
2026-04-21 20:28 44.72209 8.36287 27081 ft 460 kts 119°
2026-04-21 20:28 44.70599 8.40190 26468 ft 461 kts 120°
2026-04-21 20:28 44.68985 8.44073 25878 ft 459 kts 120°
2026-04-21 20:29 44.67412 8.47904 25297 ft 446 kts 120°
2026-04-21 20:29 44.65889 8.51635 24711 ft 435 kts 120°
2026-04-21 20:29 44.64390 8.55273 24131 ft 425 kts 120°
2026-04-21 20:29 44.62916 8.58828 23563 ft 417 kts 120°
2026-04-21 20:30 44.61472 8.62319 22956 ft 409 kts 120°
2026-04-21 20:30 44.60088 8.65671 22954 ft 386 kts 120°
2026-04-21 20:30 44.58965 8.69006 22877 ft 376 kts 103°
2026-04-21 20:30 44.58700 8.72611 22890 ft 369 kts 81°
2026-04-21 20:31 44.59270 8.76047 22947 ft 356 kts 60°
2026-04-21 20:31 44.60533 8.78926 22955 ft 339 kts 40°
2026-04-21 20:31 44.62272 8.81026 22956 ft 319 kts 22°
2026-04-21 20:31 44.64265 8.82261 22968 ft 307 kts
2026-04-21 20:32 44.66322 8.82657 22951 ft 294 kts 351°
2026-04-21 20:32 44.68306 8.82285 22731 ft 283 kts 338°
2026-04-21 20:32 44.70083 8.81253 22520 ft 273 kts 325°
2026-04-21 20:32 44.71580 8.79680 22303 ft 266 kts 313°
2026-04-21 20:33 44.72744 8.77684 22098 ft 263 kts 303°
2026-04-21 20:33 44.73736 8.75531 21902 ft 262 kts 302°
2026-04-21 20:33 44.74741 8.73395 21710 ft 262 kts 303°
2026-04-21 20:33 44.75747 8.71252 21514 ft 262 kts 302°
2026-04-21 20:34 44.76742 8.69115 21304 ft 261 kts 302°
2026-04-21 20:34 44.77735 8.66980 21102 ft 260 kts 302°
2026-04-21 20:34 44.78704 8.64834 20883 ft 259 kts 298°
2026-04-21 20:34 44.79310 8.62479 20646 ft 261 kts 286°
2026-04-21 20:35 44.79515 8.59937 20433 ft 264 kts 275°
2026-04-21 20:35 44.79282 8.57355 20220 ft 270 kts 263°
2026-04-21 20:35 44.78592 8.54865 20006 ft 278 kts 250°
2026-04-21 20:35 44.77446 8.52643 19955 ft 285 kts 237°
2026-04-21 20:36 44.75865 8.50814 19841 ft 304 kts 221°
2026-04-21 20:36 44.73886 8.49618 19669 ft 318 kts 205°
2026-04-21 20:36 44.71644 8.49249 19484 ft 333 kts 187°
2026-04-21 20:36 44.69335 8.49866 19297 ft 345 kts 167°
2026-04-21 20:37 44.67208 8.51509 19109 ft 354 kts 146°
2026-04-21 20:37 44.65529 8.54054 18929 ft 357 kts 126°
2026-04-21 20:37 44.64169 8.56963 18837 ft 356 kts 123°
2026-04-21 20:37 44.62836 8.59898 18730 ft 356 kts 123°
2026-04-21 20:38 44.61479 8.62817 18540 ft 358 kts 124°
2026-04-21 20:38 44.60104 8.65730 18312 ft 357 kts 124°
2026-04-21 20:38 44.59245 8.67683 18120 ft 355 kts 118°
2026-04-21 20:38 44.58523 8.71007 17713 ft 349 kts 95°
2026-04-21 20:39 44.58573 8.74291 17384 ft 336 kts 74°
2026-04-21 20:39 44.59309 8.77353 17071 ft 320 kts 56°
2026-04-21 20:39 44.60571 8.79835 16794 ft 307 kts 38°
2026-04-21 20:39 44.62176 8.81632 16536 ft 293 kts 22°
2026-04-21 20:40 44.63990 8.82736 16284 ft 278 kts
2026-04-21 20:40 44.65864 8.83143 16026 ft 269 kts 354°
2026-04-21 20:40 44.67689 8.82902 15957 ft 259 kts 341°
2026-04-21 20:40 44.69389 8.82082 15969 ft 257 kts 329°
2026-04-21 20:41 44.70880 8.80752 15968 ft 253 kts 318°
2026-04-21 20:41 44.72102 8.78992 15965 ft 251 kts 306°
2026-04-21 20:41 44.73071 8.76957 15972 ft 251 kts 302°
2026-04-21 20:41 44.74031 8.74907 15970 ft 251 kts 303°
2026-04-21 20:42 44.74996 8.72861 15969 ft 251 kts 302°
2026-04-21 20:42 44.75955 8.70806 15964 ft 251 kts 302°
2026-04-21 20:42 44.76910 8.68750 15969 ft 251 kts 302°
2026-04-21 20:42 44.77867 8.66696 15966 ft 251 kts 302°
2026-04-21 20:43 44.78774 8.64598 15947 ft 251 kts 296°
2026-04-21 20:43 44.79334 8.62270 15954 ft 252 kts 284°
2026-04-21 20:43 44.79507 8.59806 15954 ft 255 kts 273°
2026-04-21 20:43 44.79269 8.57313 15951 ft 260 kts 261°
2026-04-21 20:44 44.78605 8.54911 15953 ft 267 kts 249°
2026-04-21 20:44 44.77520 8.52751 15953 ft 276 kts 236°
2026-04-21 20:44 44.76035 8.50975 15951 ft 286 kts 221°
2026-04-21 20:44 44.74205 8.49757 15953 ft 298 kts 206°
2026-04-21 20:45 44.72130 8.49256 15947 ft 309 kts 189°
2026-04-21 20:45 44.69967 8.49598 15949 ft 319 kts 171°
2026-04-21 20:45 44.67905 8.50835 15946 ft 327 kts 153°
2026-04-21 20:45 44.66160 8.52909 15950 ft 332 kts 133°
2026-04-21 20:46 44.64828 8.55561 15984 ft 333 kts 123°
2026-04-21 20:46 44.63574 8.58300 15980 ft 334 kts 123°
2026-04-21 20:46 44.62305 8.61035 15978 ft 333 kts 124°
2026-04-21 20:46 44.61029 8.63754 15976 ft 333 kts 124°
2026-04-21 20:47 44.59759 8.66468 15965 ft 332 kts 123°
2026-04-21 20:47 44.58767 8.69390 15919 ft 331 kts 104°
2026-04-21 20:47 44.58457 8.72567 15936 ft 328 kts 85°
2026-04-21 20:47 44.58817 8.75675 15950 ft 320 kts 67°
2026-04-21 20:48 44.59754 8.78402 15952 ft 310 kts 49°
2026-04-21 20:48 44.61161 8.80611 15957 ft 298 kts 33°
2026-04-21 20:48 44.62896 8.82163 15960 ft 289 kts 17°
2026-04-21 20:48 44.64756 8.82980 15958 ft 275 kts
2026-04-21 20:49 44.66645 8.83116 15969 ft 268 kts 349°
2026-04-21 20:49 44.68419 8.82631 15968 ft 261 kts 336°
2026-04-21 20:49 44.70049 8.81581 15961 ft 256 kts 324°
2026-04-21 20:49 44.71438 8.80052 15960 ft 252 kts 313°
2026-04-21 20:50 44.72529 8.78142 15958 ft 250 kts 302°
2026-04-21 20:50 44.73478 8.76081 15882 ft 253 kts 302°
2026-04-21 20:50 44.74457 8.74001 15558 ft 255 kts 303°
2026-04-21 20:50 44.75434 8.71923 15233 ft 253 kts 302°
2026-04-21 20:51 44.76396 8.69856 14910 ft 252 kts 302°
2026-04-21 20:51 44.77355 8.67795 14585 ft 251 kts 302°
2026-04-21 20:51 44.78312 8.65738 14266 ft 251 kts 302°
2026-04-21 20:51 44.79084 8.63533 13925 ft 253 kts 290°
2026-04-21 20:52 44.79468 8.61116 13580 ft 255 kts 278°
2026-04-21 20:52 44.79449 8.58620 13219 ft 257 kts 266°
2026-04-21 20:52 44.79011 8.56160 12865 ft 261 kts 253°
2026-04-21 20:52 44.78164 8.53890 12512 ft 265 kts 240°
2026-04-21 20:53 44.76935 8.51939 12160 ft 269 kts 226°
2026-04-21 20:53 44.75381 8.50443 11815 ft 273 kts 212°
2026-04-21 20:53 44.73589 8.49523 11474 ft 277 kts 198°
2026-04-21 20:53 44.71663 8.49259 11132 ft 280 kts 182°
2026-04-21 20:54 44.69742 8.49702 10958 ft 276 kts 167°
2026-04-21 20:54 44.67973 8.50790 10952 ft 282 kts 152°
2026-04-21 20:54 44.66424 8.52518 10957 ft 288 kts 136°
2026-04-21 20:54 44.65213 8.54764 10957 ft 289 kts 123°
2026-04-21 20:55 44.64117 8.57150 10846 ft 292 kts 123°
2026-04-21 20:55 44.63003 8.59527 10717 ft 291 kts 124°
2026-04-21 20:55 44.61899 8.61884 10578 ft 288 kts 124°
2026-04-21 20:55 44.60801 8.64241 10433 ft 287 kts 123°
2026-04-21 20:56 44.59713 8.66576 10280 ft 285 kts 123°
2026-04-21 20:56 44.58841 8.69058 10055 ft 286 kts 108°
2026-04-21 20:56 44.58478 8.71774 9956 ft 278 kts 92°
2026-04-21 20:56 44.58602 8.74463 9962 ft 278 kts 77°
2026-04-21 20:57 44.59198 8.77022 9958 ft 276 kts 63°
2026-04-21 20:57 44.60223 8.79278 9956 ft 273 kts 47°
2026-04-21 20:57 44.61590 8.81084 9957 ft 269 kts 33°
2026-04-21 20:57 44.63204 8.82350 9962 ft 264 kts 19°
2026-04-21 20:58 44.64967 8.83032 9956 ft 262 kts
2026-04-21 20:58 44.66681 8.83934 9903 ft 270 kts 33°
2026-04-21 20:58 44.67832 8.86025 9933 ft 276 kts 61°
2026-04-21 20:58 44.68264 8.88658 9939 ft 280 kts 88°
2026-04-21 20:59 44.67833 8.91314 9951 ft 282 kts 115°
2026-04-21 20:59 44.66618 8.93427 9952 ft 279 kts 143°
2026-04-21 20:59 44.64915 8.94695 9990 ft 277 kts 159°
2026-04-21 20:59 44.63125 8.95717 10007 ft 278 kts 160°
2026-04-21 21:00 44.61341 8.96768 9985 ft 278 kts 159°
2026-04-21 21:00 44.59571 8.97863 9984 ft 278 kts 158°
2026-04-21 21:00 44.57793 8.98914 9958 ft 277 kts 163°
2026-04-21 21:00 44.55943 8.99501 9585 ft 270 kts 173°
2026-04-21 21:01 44.54054 8.99829 8981 ft 282 kts 176°
2026-04-21 21:01 44.52176 9.00187 8966 ft 267 kts 173°
2026-04-21 21:01 44.50357 9.00693 8980 ft 268 kts 170°
2026-04-21 21:01 44.48516 9.01228 8971 ft 270 kts 171°
2026-04-21 21:02 44.46670 9.01718 8970 ft 269 kts 172°
2026-04-21 21:02 44.44827 9.02194 8977 ft 270 kts 172°
2026-04-21 21:02 44.42977 9.02684 8965 ft 272 kts 171°
2026-04-21 21:02 44.41119 9.03182 8973 ft 271 kts 171°
2026-04-21 21:03 44.39268 9.03676 8912 ft 270 kts 171°
2026-04-21 21:03 44.37403 9.04170 8634 ft 274 kts 171°
2026-04-21 21:03 44.35544 9.04661 8350 ft 270 kts 171°
2026-04-21 21:03 44.33711 9.05147 8063 ft 267 kts 171°
2026-04-21 21:04 44.31897 9.05628 7782 ft 264 kts 171°
2026-04-21 21:04 44.30094 9.06105 7501 ft 262 kts 171°
2026-04-21 21:04 44.28383 9.06937 7086 ft 264 kts 149°
2026-04-21 21:04 44.26950 9.08460 7007 ft 254 kts 141°
2026-04-21 21:05 44.25551 9.10014 7014 ft 259 kts 143°
2026-04-21 21:05 44.24111 9.11535 7019 ft 260 kts 144°
2026-04-21 21:05 44.22658 9.13055 7017 ft 261 kts 143°
2026-04-21 21:05 44.21207 9.14594 7013 ft 262 kts 143°
2026-04-21 21:06 44.19754 9.16137 7012 ft 263 kts 143°
2026-04-21 21:06 44.18300 9.17676 7011 ft 262 kts 143°
2026-04-21 21:06 44.16846 9.19213 7012 ft 262 kts 143°
2026-04-21 21:06 44.15411 9.20730 7008 ft 262 kts 143°
2026-04-21 21:07 44.13938 9.22286 7008 ft 262 kts 143°
2026-04-21 21:07 44.12546 9.23917 6946 ft 264 kts 131°
2026-04-21 21:07 44.11884 9.26211 6904 ft 258 kts 94°
2026-04-21 21:07 44.12139 9.28523 6957 ft 229 kts 68°
2026-04-21 21:08 44.12980 9.30349 6991 ft 225 kts 44°
2026-04-21 21:08 44.14260 9.31528 6993 ft 221 kts 20°
2026-04-21 21:08 44.15756 9.31887 7000 ft 218 kts 358°
2026-04-21 21:08 44.17273 9.31797 6913 ft 219 kts 356°
2026-04-21 21:09 44.18798 9.31725 6765 ft 219 kts 357°
2026-04-21 21:09 44.20319 9.31680 6549 ft 220 kts 358°
2026-04-21 21:09 44.21808 9.31357 6113 ft 218 kts 336°
2026-04-21 21:09 44.23010 9.30167 5994 ft 205 kts 321°
2026-04-21 21:10 44.24171 9.28916 6015 ft 212 kts 322°
2026-04-21 21:10 44.25360 9.27673 6019 ft 214 kts 323°
2026-04-21 21:10 44.26546 9.26425 6019 ft 214 kts 322°
2026-04-21 21:10 44.27734 9.25167 6013 ft 214 kts 322°
2026-04-21 21:11 44.28923 9.23907 6008 ft 215 kts 322°
2026-04-21 21:11 44.30119 9.22643 6014 ft 216 kts 323°
2026-04-21 21:11 44.31323 9.21376 5834 ft 217 kts 323°
2026-04-21 21:11 44.32514 9.20127 5607 ft 217 kts 323°
2026-04-21 21:12 44.33548 9.18611 5209 ft 218 kts 303°
2026-04-21 21:12 44.34120 9.16656 4796 ft 215 kts 288°
2026-04-21 21:12 44.34549 9.14680 4489 ft 208 kts 287°
2026-04-21 21:12 44.34957 9.12806 4196 ft 196 kts 287°
2026-04-21 21:13 44.35355 9.10987 3913 ft 192 kts 287°
2026-04-21 21:13 44.35739 9.09237 3648 ft 191 kts 287°
2026-04-21 21:13 44.36126 9.07470 3386 ft 190 kts 287°
2026-04-21 21:13 44.36513 9.05704 3118 ft 189 kts 287°
2026-04-21 21:14 44.36898 9.03949 2851 ft 188 kts 287°
2026-04-21 21:14 44.37282 9.02200 2584 ft 187 kts 287°
2026-04-21 21:14 44.37663 9.00463 2318 ft 187 kts 287°
2026-04-21 21:14 44.38046 8.98730 2058 ft 186 kts 288°
2026-04-21 21:15 44.38417 8.97046 1785 ft 177 kts 287°
2026-04-21 21:15 44.38766 8.95456 1519 ft 163 kts 287°
2026-04-21 21:15 44.38981 8.94477 1363 ft 154 kts 287°
2026-04-21 21:15 44.39366 8.92721 1095 ft 131 kts 287°
2026-04-21 21:16 44.39629 8.91525 925 ft 127 kts 287°
2026-04-21 21:16 44.39889 8.90345 751 ft 127 kts 287°
2026-04-21 21:16 44.40162 8.89171 585 ft 127 kts 288°
2026-04-21 21:16 44.40432 8.87992 402 ft 127 kts 287°
2026-04-21 21:17 44.40676 8.86807 222 ft 126 kts 285°
2026-04-21 21:17 44.40913 8.85623 52 ft 127 kts 285°
2026-04-21 21:17 44.41126 8.84547 18 ft 97 kts 285°
2026-04-21 21:17 44.41238 8.83979 16 ft 35 kts 286°
2026-04-21 21:18 44.41299 8.83809 16 ft 12 kts 314°
2026-04-21 21:18 44.41350 8.83751 15 ft 9 kts 334°
2026-04-21 21:18 44.41407 8.83766 16 ft 8 kts 42°
2026-04-21 21:18 44.41418 8.83835 16 ft 7 kts 96°
2026-04-21 21:19 44.41403 8.83918 16 ft 10 kts 105°
2026-04-21 21:19 44.41384 8.84016 16 ft 12 kts 105°
2026-04-21 21:19 44.41359 8.84143 16 ft 15 kts 106°
2026-04-21 21:19 44.41330 8.84289 16 ft 17 kts 105°
2026-04-21 21:20 44.41336 8.84438 16 ft 17 kts 56°
2026-04-21 21:20 44.41410 8.84578 16 ft 18 kts 52°
2026-04-21 21:20 44.41491 8.84724 17 ft 20 kts 52°
2026-04-21 21:20 44.41582 8.84887 17 ft 22 kts 49°
2026-04-21 21:21 44.41691 8.85056 17 ft 24 kts 45°
2026-04-21 21:21 44.41739 8.85146 18 ft 3 kts 102°
2026-04-21 21:21 44.41723 8.85176 17 ft 7 kts 134°
2026-04-21 21:21 44.41708 8.85166 17 ft 0 kts 286°